Location: Huntsville
(41.2590°N, 111.7678°W)
Time: 20:24:01
(UTC+00:00)

Explorer 7 - Pass Details

Date: 18 June 2021
Orbit: 484 x 676 km, 50.3° (Epoch: 30 July)

Event Time Altitude Azimuth Distance (km) Brightness Sun altitude
Rises 06:05:45 0° 259° (W) 3,019 10.7 -22.6°
Reaches altitude 10° 06:08:14 10° 266° (W) 2,100 9.9 -22.7°
Maximum altitude 06:12:53 43° 338° (NNW) 926 8.4 -23.0°
Drops below altitude 10° 06:17:23 10° 50° (NE) 2,038 10.0 -23.3°
Sets 06:19:46 0° 57° (ENE) 2,920 10.7 -23.4°
